Location: Huntsville
(41.2590°N, 111.7678°W)
Time: 01:19:08
(UTC+00:00)

Vanguard 1 Rocket - Visible Passes

Search period start: 03 October 2022 00:00
Search period end: 13 October 2022 00:00
Orbit: 651 x 4225 km, 34.3° (Epoch: 02 October)

Date Brightness Start Highest point End Pass type
(mag) Time Alt. Az. Time Alt. Az. Time Alt. Az.
03 Oct 9.6 02:38:55 10° SW 02:59:39 51° SSE 03:06:11 32° ESE visible
03 Oct 9.6 05:11:13 10° WSW 05:23:27 46° SW 05:23:27 46° SW visible
04 Oct 10.3 01:24:37 10° SW 01:46:16 43° SSE 01:58:53 12° E visible
04 Oct 9.1 03:55:39 10° WSW 04:15:02 61° S 04:16:09 60° SSE visible
04 Oct 10.5 06:28:36 10° W 06:33:25 22° W 06:33:25 22° W visible
05 Oct 9.6 02:40:12 10° SW 03:02:01 57° SSE 03:08:48 34° ESE visible
05 Oct 9.7 05:13:14 10° W 05:26:04 47° WSW 05:26:04 47° WSW visible
06 Oct 10.3 01:25:27 10° SW 01:48:28 50° SSE 02:01:25 14° E visible
06 Oct 9.2 03:57:27 10° WSW 04:17:29 65° S 04:18:41 63° SSE visible
06 Oct 10.6 06:30:49 10° W 06:35:57 22° W 06:35:57 22° W visible
07 Oct 9.6 02:41:43 10° WSW 03:04:22 62° S 03:11:17 36° ESE visible
07 Oct 9.7 05:15:18 10° W 05:28:33 48° WSW 05:28:33 48° WSW visible
08 Oct 10.3 01:26:37 10° SW 01:50:39 56° SSE 02:03:52 15° E visible
08 Oct 9.2 03:59:20 10° WSW 04:19:55 66° S 04:21:07 64° SSE visible
08 Oct 10.6 06:33:04 10° W 06:38:23 22° W 06:38:23 22° W visible
09 Oct 9.6 02:43:24 10° WSW 03:06:42 66° S 03:13:41 38° ESE visible
09 Oct 9.8 05:17:22 10° W 05:30:56 47° WSW 05:30:56 47° WSW visible
10 Oct 10.2 01:28:01 10° WSW 01:52:49 62° SSE 02:06:13 17° E visible
10 Oct 9.3 04:01:17 10° W 04:22:18 66° S 04:23:28 64° SSE visible
10 Oct 10.7 06:35:22 10° W 06:40:44 21° W 06:40:44 21° W visible
11 Oct 9.6 02:45:12 10° WSW 03:09:01 69° S 03:16:00 40° ESE visible
11 Oct 9.9 05:19:28 10° W 05:33:16 45° WSW 05:33:16 45° WSW visible
12 Oct 10.2 01:29:38 10° WSW 01:54:59 66° S 02:08:32 18° E visible
12 Oct 9.4 04:03:17 10° W 04:24:38 64° SSW 04:25:47 63° S visible
12 Oct 10.8 06:37:45 10° W 06:43:02 20° W 06:43:02 20° W visible
